Time,TemperatureF,DewpointF,PressureIn,WindDirection,WindDirectionDegrees,WindSpeedMPH,WindSpeedGustMPH,Humidity,HourlyPrecipIn,Conditions,Clouds,dailyrainin,SoftwareType,DateUTC
2013-02-06 00:00:00,40.1,37.1,30.09,West,276,0.0,1.0,89,0.00,CLR,,0.00,WeatherDisplay:10.37,2013-02-06 08:00:00,
2013-02-06 00:14:00,39.9,37.2,30.09,West,276,0.0,0.0,90,0.00,CLR,,0.00,WeatherDisplay:10.37,2013-02-06 08:14:00,
2013-02-06 00:30:00,40.2,37.8,30.09,West,281,0.0,2.0,91,0.00,CLR,,0.00,WeatherDisplay:10.37,2013-02-06 08:30:00,
2013-02-06 00:44:00,40.2,37.8,30.09,NW,312,0.0,2.0,91,0.00,CLR,,0.00,WeatherDisplay:10.37,2013-02-06 08:44:00,
2013-02-06 01:00:00,39.5,36.8,30.08,NW,312,0.0,2.0,90,0.00,CLR,,0.00,WeatherDisplay:10.37,2013-02-06 09:00:00,
2013-02-06 01:14:00,38.8,36.2,30.08,NW,312,0.0,1.0,90,0.00,CLR,,0.00,WeatherDisplay:10.37,2013-02-06 09:14:00,
2013-02-06 01:30:00,38.6,36.2,30.08,NW,312,0.0,1.0,91,0.00,CLR,,0.00,WeatherDisplay:10.37,2013-02-06 09:30:00,
2013-02-06 01:44:00,39.2,37.1,30.08,NW,312,0.0,0.0,92,0.00,CLR,,0.00,WeatherDisplay:10.37,2013-02-06 09:44:00,
2013-02-06 02:00:00,39.1,36.7,30.08,NW,312,0.0,0.0,91,0.00,CLR,,0.00,WeatherDisplay:10.37,2013-02-06 10:00:00,
2013-02-06 02:14:00,38.6,36.2,30.08,NW,312,0.0,0.0,91,0.00,CLR,,0.00,WeatherDisplay:10.37,2013-02-06 10:14:00,
2013-02-06 02:30:00,38.0,35.6,30.08,NW,312,0.0,0.0,91,0.00,CLR,,0.00,WeatherDisplay:10.37,2013-02-06 10:30:00,
2013-02-06 02:45:00,37.6,35.2,30.08,NW,312,0.0,0.0,91,0.00,CLR,,0.00,WeatherDisplay:10.37,2013-02-06 10:45:00,
2013-02-06 03:00:00,37.2,34.8,30.08,NW,312,0.0,0.0,91,0.00,CLR,,0.00,WeatherDisplay:10.37,2013-02-06 11:00:00,
2013-02-06 03:14:00,36.9,34.5,30.08,NW,312,0.0,0.0,91,0.00,CLR,,0.00,WeatherDisplay:10.37,2013-02-06 11:14:00,
2013-02-06 03:30:00,36.6,34.2,30.08,NW,312,0.0,0.0,91,0.00,CLR,,0.00,WeatherDisplay:10.37,2013-02-06 11:30:00,
2013-02-06 03:44:00,36.2,33.8,30.08,NW,312,0.0,0.0,91,0.00,CLR,,0.00,WeatherDisplay:10.37,2013-02-06 11:44:00,
2013-02-06 04:00:00,36.0,33.6,30.07,NW,312,0.0,0.0,91,0.00,CLR,,0.00,WeatherDisplay:10.37,2013-02-06 12:00:00,
2013-02-06 04:14:00,35.8,33.4,30.07,NW,312,0.0,0.0,91,0.00,CLR,,0.00,WeatherDisplay:10.37,2013-02-06 12:14:00,
2013-02-06 04:30:00,35.5,33.1,30.07,NW,312,0.0,0.0,91,0.00,CLR,,0.00,WeatherDisplay:10.37,2013-02-06 12:30:00,
2013-02-06 04:44:00,35.2,33.1,30.08,NW,312,0.0,0.0,92,0.00,CLR,,0.00,WeatherDisplay:10.37,2013-02-06 12:44:00,
2013-02-06 05:00:00,34.9,32.8,30.08,NW,312,0.0,0.0,92,0.00,CLR,,0.00,WeatherDisplay:10.37,2013-02-06 13:00:00,
2013-02-06 05:14:00,34.6,32.5,30.08,NW,312,0.0,0.0,92,0.00,CLR,,0.00,WeatherDisplay:10.37,2013-02-06 13:14:00,
2013-02-06 05:30:00,34.4,32.3,30.08,NW,312,0.0,0.0,92,0.00,CLR,,0.00,WeatherDisplay:10.37,2013-02-06 13:30:00,
2013-02-06 05:44:00,34.3,32.2,30.08,NW,312,0.0,0.0,92,0.00,CLR,,0.00,WeatherDisplay:10.37,2013-02-06 13:44:00,
2013-02-06 06:00:00,34.1,32.0,30.08,NW,312,0.0,0.0,92,0.00,CLR,,0.00,WeatherDisplay:10.37,2013-02-06 14:00:00,
2013-02-06 06:14:00,34.0,31.9,30.09,NW,312,0.0,0.0,92,0.00,CLR,,0.00,WeatherDisplay:10.37,2013-02-06 14:14:00,
2013-02-06 06:29:00,33.8,31.7,30.09,NW,312,0.0,0.0,92,0.00,CLR,,0.00,WeatherDisplay:10.37,2013-02-06 14:29:00,
2013-02-06 06:44:00,33.8,31.7,30.09,NW,312,0.0,0.0,92,0.00,CLR,,0.00,WeatherDisplay:10.37,2013-02-06 14:44:00,
2013-02-06 07:00:00,33.5,31.4,30.10,NW,312,0.0,0.0,92,0.00,CLR,,0.00,WeatherDisplay:10.37,2013-02-06 15:00:00,
2013-02-06 07:14:00,33.4,31.3,30.11,NW,312,0.0,0.0,92,0.00,CLR,,0.00,WeatherDisplay:10.37,2013-02-06 15:14:00,
2013-02-06 07:29:00,33.3,31.2,30.11,NW,312,0.0,0.0,92,0.00,CLR,,0.00,WeatherDisplay:10.37,2013-02-06 15:29:00,
2013-02-06 07:45:00,33.2,31.1,30.11,NW,312,0.0,0.0,92,0.00,CLR,,0.00,WeatherDisplay:10.37,2013-02-06 15:45:00,
2013-02-06 07:59:00,33.2,31.1,30.11,NW,312,0.0,0.0,92,0.00,CLR,,0.00,WeatherDisplay:10.37,2013-02-06 15:59:00,
2013-02-06 08:14:00,33.4,31.3,30.12,NW,312,0.0,0.0,92,0.00,CLR,,0.00,WeatherDisplay:10.37,2013-02-06 16:14:00,
2013-02-06 08:29:00,33.5,31.4,30.12,NW,312,0.0,0.0,92,0.00,CLR,,0.00,WeatherDisplay:10.37,2013-02-06 16:29:00,
2013-02-06 08:44:00,33.7,31.9,30.12,NW,312,0.0,0.0,93,0.00,CLR,,0.00,WeatherDisplay:10.37,2013-02-06 16:44:00,
2013-02-06 08:59:00,34.1,32.3,30.13,NW,312,0.0,0.0,93,0.00,CLR,,0.00,WeatherDisplay:10.37,2013-02-06 16:59:00,
2013-02-06 09:14:00,34.7,32.9,30.13,NW,312,0.0,0.0,93,0.00,CLR,,0.00,WeatherDisplay:10.37,2013-02-06 17:14:00,
2013-02-06 09:30:00,35.6,33.8,30.13,NW,312,0.0,0.0,93,0.00,CLR,,0.00,WeatherDisplay:10.37,2013-02-06 17:30:00,
2013-02-06 09:44:00,37.4,35.8,30.13,NW,312,0.0,0.0,94,0.00,CLR,,0.00,WeatherDisplay:10.37,2013-02-06 17:44:00,
2013-02-06 10:00:00,39.8,38.5,30.13,NW,312,0.0,0.0,95,0.00,CLR,,0.00,WeatherDisplay:10.37,2013-02-06 18:00:00,
2013-02-06 10:14:00,41.5,40.2,30.12,NW,312,0.0,0.0,95,0.00,CLR,,0.00,WeatherDisplay:10.37,2013-02-06 18:14:00,
2013-02-06 10:29:00,42.8,41.5,30.12,NW,312,0.0,0.0,95,0.00,CLR,,0.00,WeatherDisplay:10.37,2013-02-06 18:29:00,
2013-02-06 10:44:00,44.2,42.6,30.11,NW,312,0.0,0.0,94,0.00,CLR,,0.00,WeatherDisplay:10.37,2013-02-06 18:44:00,
2013-02-06 10:59:00,45.9,43.9,30.10,NW,312,0.0,0.0,93,0.00,CLR,,0.00,WeatherDisplay:10.37,2013-02-06 18:59:00,
2013-02-06 11:14:00,47.3,43.9,30.10,NW,312,0.0,0.0,88,0.00,CLR,,0.00,WeatherDisplay:10.37,2013-02-06 19:14:00,
2013-02-06 11:29:00,48.5,43.6,30.10,NW,312,0.0,0.0,83,0.00,CLR,,0.00,WeatherDisplay:10.37,2013-02-06 19:29:00,
2013-02-06 11:44:00,49.7,43.4,30.09,NW,312,0.0,0.0,79,0.00,CLR,,0.00,WeatherDisplay:10.37,2013-02-06 19:44:00,
2013-02-06 11:59:00,50.5,43.2,30.08,NW,312,0.0,0.0,76,0.00,CLR,,0.00,WeatherDisplay:10.37,2013-02-06 19:59:00,
2013-02-06 12:14:00,51.3,43.3,30.08,NW,310,0.0,2.0,74,0.00,CLR,,0.00,WeatherDisplay:10.37,2013-02-06 20:14:00,
2013-02-06 12:29:00,52.8,44.8,30.08,South,175,0.0,1.0,74,0.00,CLR,,0.00,WeatherDisplay:10.37,2013-02-06 20:29:00,
2013-02-06 12:45:00,54.3,44.4,30.07,West,270,1.0,3.0,69,0.00,CLR,,0.00,WeatherDisplay:10.37,2013-02-06 20:45:00,
2013-02-06 13:00:00,55.8,45.4,30.06,WSW,249,0.0,1.0,68,0.00,CLR,,0.00,WeatherDisplay:10.37,2013-02-06 21:00:00,
2013-02-06 13:15:00,57.3,47.2,30.06,NW,321,0.0,3.0,69,0.00,CLR,,0.00,WeatherDisplay:10.37,2013-02-06 21:15:00,
2013-02-06 13:30:00,57.1,45.8,30.05,NW,308,0.0,2.0,66,0.00,CLR,,0.00,WeatherDisplay:10.37,2013-02-06 21:30:00,
2013-02-06 13:45:00,58.4,45.5,30.05,SW,223,0.0,3.0,62,0.00,CLR,,0.00,WeatherDisplay:10.37,2013-02-06 21:45:00,
2013-02-06 14:00:00,58.4,47.1,30.05,WSW,257,0.0,2.0,66,0.00,CLR,,0.00,WeatherDisplay:10.37,2013-02-06 22:00:00,
2013-02-06 14:15:00,58.4,47.0,30.05,WSW,258,0.0,1.0,66,0.00,CLR,,0.00,WeatherDisplay:10.37,2013-02-06 22:15:00,
2013-02-06 14:30:00,59.9,46.4,30.05,WSW,245,0.0,2.0,61,0.00,CLR,,0.00,WeatherDisplay:10.37,2013-02-06 22:30:00,
2013-02-06 14:45:00,60.4,46.4,30.05,SW,217,0.0,2.0,60,0.00,CLR,,0.00,WeatherDisplay:10.37,2013-02-06 22:45:00,
2013-02-06 15:00:00,58.6,47.3,30.05,WNW,300,0.0,2.0,66,0.00,CLR,,0.00,WeatherDisplay:10.37,2013-02-06 23:00:00,
2013-02-06 15:15:00,57.3,46.4,30.05,WNW,298,0.0,3.0,67,0.00,CLR,,0.00,WeatherDisplay:10.37,2013-02-06 23:15:00,
2013-02-06 15:30:00,56.7,46.6,30.05,WNW,288,0.0,2.0,69,0.00,CLR,,0.00,WeatherDisplay:10.37,2013-02-06 23:30:00,
2013-02-06 15:45:00,56.2,46.9,30.06,WNW,285,0.0,0.0,71,0.00,CLR,,0.00,WeatherDisplay:10.37,2013-02-06 23:45:00,
2013-02-06 16:00:00,55.9,47.4,30.06,WNW,285,0.0,1.0,73,0.00,CLR,,0.00,WeatherDisplay:10.37,2013-02-07 00:00:00,
2013-02-06 16:15:00,55.4,47.2,30.06,WNW,285,0.0,0.0,74,0.00,CLR,,0.00,WeatherDisplay:10.37,2013-02-07 00:15:00,
2013-02-06 16:30:00,55.0,45.0,30.06,West,277,0.0,5.0,69,0.00,CLR,,0.00,WeatherDisplay:10.37,2013-02-07 00:30:00,
2013-02-06 16:45:00,54.5,42.9,30.07,SSE,167,0.0,4.0,65,0.00,CLR,,0.00,WeatherDisplay:10.37,2013-02-07 00:45:00,
2013-02-06 17:00:00,53.3,43.0,30.08,SSE,156,0.0,2.0,68,0.00,CLR,,0.00,WeatherDisplay:10.37,2013-02-07 01:00:00,
2013-02-06 17:15:00,52.6,43.1,30.08,South,183,0.0,0.0,70,0.00,CLR,,0.00,WeatherDisplay:10.37,2013-02-07 01:15:00,
2013-02-06 17:30:00,51.8,43.1,30.08,South,183,0.0,0.0,72,0.00,CLR,,0.00,WeatherDisplay:10.37,2013-02-07 01:30:00,
2013-02-06 17:45:00,50.8,42.5,30.09,South,183,0.0,0.0,73,0.00,CLR,,0.00,WeatherDisplay:10.37,2013-02-07 01:45:00,
2013-02-06 18:00:00,50.0,42.3,30.08,South,183,0.0,0.0,75,0.00,CLR,,0.00,WeatherDisplay:10.37,2013-02-07 02:00:00,
2013-02-06 18:15:00,49.2,42.0,30.09,South,183,0.0,0.0,76,0.00,CLR,,0.00,WeatherDisplay:10.37,2013-02-07 02:15:00,
2013-02-06 18:30:00,48.5,42.0,30.09,South,183,0.0,0.0,78,0.00,CLR,,0.00,WeatherDisplay:10.37,2013-02-07 02:30:00,
2013-02-06 18:45:00,47.9,42.0,30.10,South,183,0.0,0.0,80,0.00,CLR,,0.00,WeatherDisplay:10.37,2013-02-07 02:45:00,
2013-02-06 19:00:00,47.4,41.5,30.10,South,183,0.0,0.0,80,0.00,CLR,,0.00,WeatherDisplay:10.37,2013-02-07 03:00:00,
2013-02-06 19:15:00,46.8,41.3,30.10,South,183,0.0,1.0,81,0.00,CLR,,0.00,WeatherDisplay:10.37,2013-02-07 03:15:00,
2013-02-06 19:30:00,46.5,41.0,30.11,SE,133,0.0,1.0,81,0.00,CLR,,0.00,WeatherDisplay:10.37,2013-02-07 03:30:00,
2013-02-06 19:45:00,46.4,40.9,30.11,SE,127,0.0,0.0,81,0.00,CLR,,0.00,WeatherDisplay:10.37,2013-02-07 03:45:00,
2013-02-06 20:00:00,46.1,40.6,30.11,SE,127,0.0,1.0,81,0.00,CLR,,0.00,WeatherDisplay:10.37,2013-02-07 04:00:00,
2013-02-06 20:15:00,45.8,40.3,30.12,SE,127,0.0,0.0,81,0.00,CLR,,0.00,WeatherDisplay:10.37,2013-02-07 04:15:00,
2013-02-06 20:30:00,45.7,40.2,30.12,SE,127,0.0,1.0,81,0.00,CLR,,0.00,WeatherDisplay:10.37,2013-02-07 04:30:00,
2013-02-06 20:45:00,45.7,40.2,30.12,SE,127,0.0,1.0,81,0.00,CLR,,0.00,WeatherDisplay:10.37,2013-02-07 04:45:00,
2013-02-06 21:15:00,45.8,40.0,30.12,SE,127,0.0,0.0,80,0.00,CLR,,0.00,WeatherDisplay:10.37,2013-02-07 05:15:00,
2013-02-06 21:30:00,45.8,39.3,30.12,SE,127,0.0,1.0,78,0.00,CLR,,0.00,WeatherDisplay:10.37,2013-02-07 05:30:00,
2013-02-06 21:45:00,45.7,38.9,30.12,SE,127,0.0,1.0,77,0.00,CLR,,0.00,WeatherDisplay:10.37,2013-02-07 05:45:00,
2013-02-06 22:00:00,45.5,38.7,30.12,SE,127,0.0,1.0,77,0.00,CLR,,0.00,WeatherDisplay:10.37,2013-02-07 06:00:00,
2013-02-06 22:15:00,45.2,38.7,30.12,SE,127,0.0,0.0,78,0.00,CLR,,0.00,WeatherDisplay:10.37,2013-02-07 06:15:00,
2013-02-06 22:30:00,44.9,38.8,30.12,SE,127,0.0,1.0,79,0.00,CLR,,0.00,WeatherDisplay:10.37,2013-02-07 06:30:00,
2013-02-06 22:45:00,43.7,37.9,30.12,SE,127,0.0,1.0,80,0.00,CLR,,0.00,WeatherDisplay:10.37,2013-02-07 06:45:00,
2013-02-06 23:00:00,42.2,37.4,30.12,SE,127,0.0,1.0,83,0.00,CLR,,0.00,WeatherDisplay:10.37,2013-02-07 07:00:00,
2013-02-06 23:15:00,40.9,36.4,30.13,SE,127,0.0,1.0,84,0.00,CLR,,0.00,WeatherDisplay:10.37,2013-02-07 07:15:00,
2013-02-06 23:30:00,40.1,36.2,30.13,SE,127,0.0,1.0,86,0.00,CLR,,0.00,WeatherDisplay:10.37,2013-02-07 07:30:00,
2013-02-06 23:45:00,39.6,36.0,30.13,SE,127,0.0,0.0,87,0.00,CLR,,0.00,WeatherDisplay:10.37,2013-02-07 07:45:00,